Dades meteomassalio
Diari Summary for Maig 5, 2017 Units:  Metric    English   Both
« Previous Day
Next Day »
Diari Semanal Mensual Anual Personalitzat
  Maxima: Minima: Mijana:
Temperatura: -17.8 °C -10.6 °C -8.1 °C
Rosada: -17.8 °C -13.2 °C -11.7 °C
Humitat: Humidity % 42 % 68 %
Velocitat del vent: 0 km/h 0 km/h 19 km/h
Racha vent: 0 km/h - -
Vent:- - ESE
Pressio: 0 hPa 34097 hPa -
Pluja: 0 mm    
Historical Graphs
 
 
Tabular Data for Maig 5, 2017
Time Temperature Dew Point Pressure Wind Wind Speed Wind Gust Humidity Rainfall Rate (Hourly) solar Conditions
-17.8 °C -17.8 °C 0 hPa Calm     Humidity % 0 mm SolarRadiationWatts/m^2 W/m2 Conditions
00:03 -8.7 °C -10.9 °C 34222.3 hPa SSE 7.7 km/h 7.7 km/h 77 % 0 mm 0.0 W/m2 CLR
00:08 -8.7 °C -10.9 °C 34222.3 hPa Calm     77 % 0 mm 0.0 W/m2 CLR
00:13 -8.7 °C -10.9 °C 34222.3 hPa Calm     77 % 0 mm 0.0 W/m2 CLR
00:18 -8.7 °C -10.9 °C 34222.3 hPa Calm     77 % 0 mm 0.0 W/m2 CLR
00:23 -8.7 °C -10.9 °C 34235.8 hPa Calm     77 % 0 mm 0.0 W/m2 CLR
00:28 -8.7 °C -10.9 °C 34235.8 hPa Calm     77 % 0 mm 0.0 W/m2 CLR
00:33 -8.7 °C -10.9 °C 34222.3 hPa Calm     77 % 0 mm 0.0 W/m2 CLR
00:38 -8.8 °C -11 °C 34235.8 hPa Calm     77 % 0 mm 0.0 W/m2 CLR
00:43 -8.8 °C -10.9 °C 34235.8 hPa Calm     78 % 0 mm 0.0 W/m2 CLR
00:48 -8.8 °C -10.9 °C 34222.3 hPa Calm     79 % 0 mm 0.0 W/m2 CLR
00:53 -8.9 °C -10.9 °C 34222.3 hPa Calm     79 % 0 mm 0.0 W/m2 CLR
00:58 -8.9 °C -11 °C 34222.3 hPa Calm     79 % 0 mm 0.0 W/m2 CLR
01:03 -9 °C -11 °C 34222.3 hPa Calm     79 % 0 mm 0.0 W/m2 CLR
01:08 -9.1 °C -10.9 °C 34222.3 hPa Calm     80 % 0 mm 0.0 W/m2 CLR
01:13 -9.1 °C -11 °C 34222.3 hPa Calm     80 % 0 mm 0.0 W/m2 CLR
01:18 -9.1 °C -10.9 °C 34222.3 hPa Calm     81 % 0 mm 0.0 W/m2 CLR
01:23 -9.2 °C -11 °C 34222.3 hPa Calm     81 % 0 mm 0.0 W/m2 CLR
01:28 -9.3 °C -11.1 °C 34222.3 hPa Calm     81 % 0 mm 0.0 W/m2 CLR
01:33 -9.3 °C -11 °C 34222.3 hPa Calm     82 % 0 mm 0.0 W/m2 CLR
01:38 -9.4 °C -11.1 °C 34222.3 hPa Calm     82 % 0 mm 0.0 W/m2 CLR
01:43 -9.4 °C -11 °C 34222.3 hPa Calm     83 % 0 mm 0.0 W/m2 CLR
01:48 -9.4 °C -11.1 °C 34222.3 hPa Calm     83 % 0 mm 0.0 W/m2 CLR
01:53 -9.5 °C -11.1 °C 34222.3 hPa Calm     83 % 0 mm 0.0 W/m2 CLR
01:58 -9.5 °C -11.1 °C 34222.3 hPa Calm     83 % 0 mm 0.0 W/m2 CLR
02:03 -9.6 °C -11 °C 34222.3 hPa Calm     84 % 0 mm 0.0 W/m2 CLR
02:08 -9.6 °C -11.1 °C 34222.3 hPa Calm     84 % 0 mm 0.0 W/m2 CLR
02:13 -9.6 °C -11.1 °C 34222.3 hPa Calm     84 % 0 mm 0.0 W/m2 CLR
02:18 -9.6 °C -11.1 °C 34222.3 hPa Calm     84 % 0 mm 0.0 W/m2 CLR
02:23 -9.6 °C -11 °C 34222.3 hPa Calm     85 % 0 mm 0.0 W/m2 CLR
02:28 -9.6 °C -11.1 °C 34222.3 hPa Calm     84 % 0 mm 0.0 W/m2 CLR
02:33 -9.7 °C -11.2 °C 34212.1 hPa Calm     84 % 0 mm 0.0 W/m2 CLR
02:38 -9.7 °C -11.1 °C 34212.1 hPa ENE 6 km/h 6 km/h 85 % 0 mm 0.0 W/m2 CLR
02:43 -9.7 °C -11.2 °C 34212.1 hPa Calm     84 % 0 mm 0.0 W/m2 CLR
02:48 -9.7 °C -11.2 °C 34212.1 hPa Calm     84 % 0 mm 0.0 W/m2 CLR
02:53 -9.8 °C -11.2 °C 34212.1 hPa Calm     85 % 0 mm 0.0 W/m2 CLR
02:58 -9.8 °C -11.2 °C 34212.1 hPa ESE 9 km/h 9 km/h 85 % 0 mm 0.0 W/m2 CLR
03:03 -9.7 °C -11.1 °C 34198.6 hPa Calm     85 % 0 mm 0.0 W/m2 CLR
03:08 -9.7 °C -11.2 °C 34212.1 hPa Calm     84 % 0 mm 0.0 W/m2 CLR
03:13 -9.8 °C -11.2 °C 34212.1 hPa Calm     84 % 0 mm 0.0 W/m2 CLR
03:18 -9.8 °C -11.2 °C 34198.6 hPa Calm     84 % 0 mm 0.0 W/m2 CLR
03:23 -9.8 °C -11.3 °C 34198.6 hPa Calm     84 % 0 mm 0.0 W/m2 CLR
03:28 -9.9 °C -11.3 °C 34198.6 hPa Calm     84 % 0 mm 0.0 W/m2 CLR
03:33 -9.9 °C -11.4 °C 34188.4 hPa Calm     84 % 0 mm 0.0 W/m2 CLR
03:38 -9.9 °C -11.4 °C 34198.6 hPa Calm     84 % 0 mm 0.0 W/m2 CLR
03:43 -9.9 °C -11.4 °C 34188.4 hPa Calm     84 % 0 mm 0.0 W/m2 CLR
03:48 -10 °C -11.5 °C 34198.6 hPa Calm     84 % 0 mm 0.0 W/m2 CLR
03:53 -10.1 °C -11.6 °C 34198.6 hPa Calm     84 % 0 mm 0.0 W/m2 CLR
03:58 -10.1 °C -11.5 °C 34198.6 hPa Calm     85 % 0 mm 0.0 W/m2 CLR
04:03 -10.1 °C -11.6 °C 34198.6 hPa Calm     84 % 0 mm 0.0 W/m2 CLR
04:09 -9.9 °C -11.4 °C 34198.6 hPa Calm   0.8 km/h 84 % 0 mm 0.0 W/m2 CLR
04:14 -9.9 °C -11.5 °C 34188.4 hPa Calm     83 % 0 mm 0.0 W/m2 CLR
04:19 -9.9 °C -11.4 °C 34198.6 hPa Calm     84 % 0 mm 0.0 W/m2 CLR
04:24 -9.9 °C -11.4 °C 34198.6 hPa Calm     84 % 0 mm 0.0 W/m2 CLR
04:29 -10.1 °C -11.7 °C 34198.6 hPa Calm     82 % 0 mm 0.0 W/m2 CLR
04:34 -10.1 °C -11.7 °C 34198.6 hPa Calm     83 % 0 mm 0.0 W/m2 CLR
04:39 -10.2 °C -11.6 °C 34198.6 hPa Calm     84 % 0 mm 0.0 W/m2 CLR
04:44 -10.2 °C -11.7 °C 34198.6 hPa Calm     84 % 0 mm 0.0 W/m2 CLR
04:49 -10.2 °C -11.7 °C 34198.6 hPa Calm     84 % 0 mm 0.0 W/m2 CLR
04:54 -10.3 °C -11.8 °C 34198.6 hPa Calm     84 % 0 mm 0.0 W/m2 CLR
04:59 -10.3 °C -11.7 °C 34198.6 hPa Calm     85 % 0 mm 0.0 W/m2 CLR
05:04 -10.3 °C -11.8 °C 34212.1 hPa Calm     84 % 0 mm 0.0 W/m2 CLR
05:09 -10.4 °C -11.9 °C 34198.6 hPa Calm     84 % 0 mm 0.0 W/m2 CLR
05:14 -10.4 °C -11.8 °C 34212.1 hPa Calm     85 % 0 mm 0.0 W/m2 CLR
05:19 -10.4 °C -11.8 °C 34212.1 hPa Calm     85 % 0 mm 0.0 W/m2 CLR
05:24 -10.4 °C -11.8 °C 34212.1 hPa Calm     85 % 0 mm 0.0 W/m2 CLR
05:29 -10.5 °C -11.9 °C 34212.1 hPa Calm     85 % 0 mm 0.0 W/m2 CLR
05:34 -10.5 °C -11.9 °C 34212.1 hPa Calm     85 % 0 mm 0.0 W/m2 CLR
05:39 -10.6 °C -11.9 °C 34212.1 hPa Calm     85 % 0 mm 0.0 W/m2 CLR
05:44 -10.6 °C -11.9 °C 34212.1 hPa Calm     85 % 0 mm 0.0 W/m2 CLR
05:49 -10.6 °C -11.9 °C 34198.6 hPa Calm     85 % 0 mm 0.0 W/m2 CLR
05:54 -10.6 °C -11.9 °C 34198.6 hPa Calm     85 % 0 mm 0.0 W/m2 CLR
05:59 -10.6 °C -12 °C 34198.6 hPa NE 9 km/h 9 km/h 85 % 0 mm 0.0 W/m2 CLR
06:04 -10.6 °C -11.9 °C 34198.6 hPa East 9 km/h 9 km/h 85 % 0 mm 0.0 W/m2 CLR
06:09 -10.5 °C -11.8 °C 34198.6 hPa Calm     85 % 0 mm 0.0 W/m2 CLR
06:14 -10.4 °C -11.9 °C 34198.6 hPa Calm     84 % 0 mm 0.0 W/m2 CLR
06:19 -10.5 °C -12.1 °C 34198.6 hPa Calm     83 % 0 mm 0.0 W/m2 CLR
06:24 -10.6 °C -12.2 °C 34198.6 hPa Calm     83 % 0 mm 0.0 W/m2 CLR
06:29 -10.6 °C -12.1 °C 34198.6 hPa Calm     84 % 0 mm 0.0 W/m2 CLR
06:34 -10.5 °C -12 °C 34198.6 hPa Calm     84 % 0 mm 0.0 W/m2 CLR
06:39 -10.6 °C -12.1 °C 34198.6 hPa NNE 9 km/h 9 km/h 84 % 0 mm 0.0 W/m2 CLR
06:44 -10.5 °C -12 °C 34188.4 hPa Calm     84 % 0 mm 0.0 W/m2 OVC
06:49 -10.4 °C -11.9 °C 34188.4 hPa Calm     84 % 0 mm 0.0 W/m2 OVC
06:54 -10.4 °C -11.9 °C 34198.6 hPa Calm     84 % 0 mm 0.0 W/m2 OVC
06:59 -10.4 °C -11.9 °C 34188.4 hPa Calm     84 % 0 mm 0.0 W/m2 OVC
07:04 -10.4 °C -11.8 °C 34198.6 hPa ESE 3.1 km/h   84 % 0 mm 5.0 W/m2 OVC
07:09 -10.3 °C -11.8 °C 34188.4 hPa Calm     84 % 0 mm 9.0 W/m2 BKN
07:14 -10.3 °C -11.8 °C 34188.4 hPa SE 15 km/h 15 km/h 84 % 0 mm 12.0 W/m2 BKN
07:19 -10.2 °C -11.7 °C 34188.4 hPa ESE 15 km/h 15 km/h 84 % 0 mm 14.0 W/m2 BKN
07:24 -10.2 °C -11.8 °C 34188.4 hPa ESE 26.9 km/h 26.9 km/h 83 % 0 mm 18.0 W/m2 BKN
07:29 -10.2 °C -11.7 °C 34188.4 hPa SE 23.8 km/h 23.8 km/h 83 % 0 mm 19.0 W/m2 BKN
07:34 -10.1 °C -11.7 °C 34178.3 hPa SE 17.9 km/h 17.9 km/h 83 % 0 mm 21.0 W/m2 BKN
07:39 -10.1 °C -11.7 °C 34188.4 hPa SE 11.9 km/h 11.9 km/h 83 % 0 mm 21.0 W/m2 BKN
07:44 -10.1 °C -11.7 °C 34198.6 hPa Calm     83 % 0 mm 23.0 W/m2 BKN
07:49 -10.1 °C -11.7 °C 34198.6 hPa Calm     82 % 0 mm 26.0 W/m2 BKN
07:54 -10.1 °C -11.7 °C 34198.6 hPa ESE 9 km/h 9 km/h 82 % 0 mm 39.0 W/m2 BKN
07:59 -9.9 °C -11.6 °C 34198.6 hPa ENE 9 km/h 9 km/h 82 % 0 mm 63.0 W/m2 BKN
08:04 -10 °C -11.7 °C 34198.6 hPa Calm     82 % 0 mm 135.0 W/m2 SCT
08:09 -9.9 °C -11.5 °C 34198.6 hPa Calm     83 % 0 mm 167.0 W/m2 CLR
08:14 -9.8 °C -11.5 °C 34212.1 hPa Calm     82 % 0 mm 125.0 W/m2 CLR
08:20 -9.7 °C -11.4 °C 34212.1 hPa Calm     81 % 0 mm 209.0 W/m2 CLR
08:25 -9.5 °C -11.4 °C 34222.3 hPa Calm     80 % 0 mm 204.0 W/m2 CLR
08:30 -9.3 °C -11.4 °C 34222.3 hPa ENE 3.1 km/h 8 km/h 78 % 0 mm 139.0 W/m2 CLR
08:35 -9.3 °C -11.6 °C 34222.3 hPa NE 9 km/h   76 % 0 mm 121.0 W/m2 CLR
08:40 -9.2 °C -11.8 °C 34246 hPa ENE 9 km/h 9 km/h 74 % 0 mm 171.0 W/m2 CLR
08:45 -9.1 °C -11.8 °C 34246 hPa ENE 5.1 km/h   73 % 0 mm 239.0 W/m2 CLR
08:50 -9 °C -11.9 °C 34256.2 hPa Calm     71 % 0 mm 236.0 W/m2 CLR
08:55 -8.8 °C -11.8 °C 34256.2 hPa Calm     71 % 0 mm 311.0 W/m2 CLR
09:00 -8.7 °C -11.8 °C 34256.2 hPa Calm     70 % 0 mm 271.0 W/m2 CLR
09:05 -8.7 °C -11.9 °C 34269.7 hPa Calm     68 % 0 mm 257.0 W/m2 CLR
09:10 -8.7 °C -11.8 °C 34256.2 hPa Calm     69 % 0 mm 178.0 W/m2 CLR
09:15 -8.7 °C -11.9 °C 34269.7 hPa Calm     68 % 0 mm 156.0 W/m2 CLR
09:20 -8.7 °C -11.8 °C 34269.7 hPa Calm     69 % 0 mm 156.0 W/m2 CLR
09:25 -8.5 °C -11.7 °C 34269.7 hPa Calm     69 % 0 mm 237.0 W/m2 CLR
09:30 -8.4 °C -11.8 °C 34269.7 hPa Calm     67 % 0 mm 199.0 W/m2 CLR
09:35 -8.2 °C -11.6 °C 34279.9 hPa Calm     67 % 0 mm 432.0 W/m2 CLR
09:40 -8.1 °C -11.6 °C 34293.4 hPa Calm     67 % 0 mm 167.0 W/m2 CLR
09:45 -8.1 °C -11.7 °C 34293.4 hPa Calm     66 % 0 mm 186.0 W/m2 CLR
09:50 -8.1 °C -11.6 °C 34293.4 hPa Calm     67 % 0 mm 262.0 W/m2 CLR
09:55 -8 °C -11.5 °C 34293.4 hPa Calm     67 % 0 mm 515.0 W/m2 CLR
10:00 -7.9 °C -11.6 °C 34293.4 hPa SW 9 km/h 9 km/h 65 % 0 mm 548.0 W/m2 CLR
10:05 -7.9 °C -11.6 °C 34279.9 hPa Calm     65 % 0 mm 364.0 W/m2 CLR
10:10 -7.9 °C -11.6 °C 34293.4 hPa Calm     65 % 0 mm 218.0 W/m2 CLR
10:15 -7.9 °C -11.6 °C 34279.9 hPa ESE 10.3 km/h 10.3 km/h 65 % 0 mm 234.0 W/m2 CLR
10:20 -7.9 °C -11.7 °C 34269.7 hPa ESE 9 km/h 9 km/h 64 % 0 mm 158.0 W/m2 CLR
10:25 -7.9 °C -11.6 °C 34256.2 hPa ESE 17.9 km/h 17.9 km/h 65 % 0 mm 162.0 W/m2 CLR
10:30 -7.9 °C -11.6 °C 34256.2 hPa ENE 3.1 km/h   65 % 0 mm 165.0 W/m2 CLR
10:35 -7.8 °C -11.4 °C 34256.2 hPa ENE 7.7 km/h 7.7 km/h 66 % 0 mm 116.0 W/m2 CLR
10:40 -7.8 °C -11.5 °C 34256.2 hPa ESE 23.8 km/h 23.8 km/h 65 % 0 mm 107.0 W/m2 CLR
10:45 -7.8 °C -11.6 °C 34256.2 hPa ENE 29.8 km/h 29.8 km/h 65 % 0 mm 97.0 W/m2 CLR
10:50 -7.9 °C -11.6 °C 34246 hPa East 29.8 km/h 29.8 km/h 65 % 0 mm 97.0 W/m2 CLR
10:55 -7.9 °C -11.6 °C 34256.2 hPa ESE 29.8 km/h 29.8 km/h 66 % 0 mm 116.0 W/m2 CLR
11:00 -7.9 °C -11.4 °C 34246 hPa East 20.8 km/h 20.8 km/h 67 % 0 mm 116.0 W/m2 CLR
11:05 -8 °C -11.4 °C 34235.8 hPa ESE 20.9 km/h 20.9 km/h 67 % 0 mm 162.0 W/m2 CLR
11:10 -8 °C -11.4 °C 34222.3 hPa ESE 35.7 km/h 35.7 km/h 67 % 0 mm 248.0 W/m2 CLR
11:15 -7.9 °C -11.6 °C 34235.8 hPa ESE 29.8 km/h 29.8 km/h 66 % 0 mm 255.0 W/m2 CLR
11:20 -7.9 °C -11.4 °C 34222.3 hPa ESE 23.8 km/h 23.8 km/h 67 % 0 mm 281.0 W/m2 CLR
11:25 -7.9 °C -11.4 °C 34222.3 hPa SE 35.7 km/h 35.7 km/h 66 % 0 mm 376.0 W/m2 CLR
11:31 -7.6 °C -11.3 °C 34222.3 hPa East 41.7 km/h 41.7 km/h 65 % 0 mm 536.0 W/m2 CLR
11:36 -7.3 °C -11.4 °C 34212.1 hPa ESE 47.6 km/h 47.6 km/h 62 % 0 mm 740.0 W/m2 CLR
11:41 -7.4 °C -11.6 °C 34198.6 hPa SE 41.7 km/h 41.7 km/h 62 % 0 mm 334.0 W/m2 CLR
11:46 -7.4 °C -11.6 °C 34198.6 hPa ESE 38.8 km/h 38.8 km/h 62 % 0 mm 380.0 W/m2 CLR
11:51 -7.6 °C -11.7 °C 34198.6 hPa SE 41.7 km/h 41.7 km/h 62 % 0 mm 325.0 W/m2 CLR
11:56 -7.4 °C -11.4 °C 34198.6 hPa SE 15.6 km/h 15.6 km/h 63 % 0 mm 323.0 W/m2 CLR
12:01 -7.3 °C -11.6 °C 34188.4 hPa SE 38.8 km/h 38.8 km/h 61 % 0 mm 334.0 W/m2 CLR
12:06 -7.3 °C -11.4 °C 34188.4 hPa ESE 32.8 km/h 32.8 km/h 62 % 0 mm 397.0 W/m2 CLR
12:11 -7.2 °C -11.3 °C 34178.3 hPa East 32.8 km/h 32.8 km/h 62 % 0 mm 540.0 W/m2 CLR
12:16 -7.1 °C -11.3 °C 34178.3 hPa ESE 32.8 km/h 32.8 km/h 61 % 0 mm 585.0 W/m2 CLR
12:21 -6.9 °C -11.2 °C 34178.3 hPa ESE 29.8 km/h 29.8 km/h 61 % 0 mm 411.0 W/m2 CLR
12:26 -6.9 °C -11.2 °C 34178.3 hPa SE 23.8 km/h 23.8 km/h 61 % 0 mm 352.0 W/m2 CLR
12:31 -6.9 °C -11.2 °C 34178.3 hPa ESE 20.9 km/h 20.9 km/h 61 % 0 mm 411.0 W/m2 CLR
12:36 -6.8 °C -11.3 °C 34178.3 hPa East 38.8 km/h 38.8 km/h 60 % 0 mm 432.0 W/m2 CLR
12:41 -6.9 °C -11.4 °C 34178.3 hPa East 47.6 km/h 47.6 km/h 60 % 0 mm 415.0 W/m2 CLR
12:46 -6.8 °C -11.3 °C 34178.3 hPa ESE 38.8 km/h 38.8 km/h 60 % 0 mm 496.0 W/m2 CLR
12:51 -6.7 °C -11.2 °C 34178.3 hPa ESE 26.9 km/h 26.9 km/h 60 % 0 mm 849.0 W/m2 CLR
12:56 -6.6 °C -11.2 °C 34178.3 hPa ENE 29.8 km/h 29.8 km/h 59 % 0 mm 543.0 W/m2 CLR
13:01 -6.6 °C -11.2 °C 34178.3 hPa East 32.8 km/h 32.8 km/h 59 % 0 mm 666.0 W/m2 CLR
13:06 -6.4 °C -11.3 °C 34178.3 hPa SE 38.8 km/h 38.8 km/h 57 % 0 mm 404.0 W/m2 CLR
13:11 -6.2 °C -11.4 °C 34178.3 hPa SE 47.6 km/h 47.6 km/h 55 % 0 mm 513.0 W/m2 CLR
13:16 -5.9 °C -11.5 °C 34178.3 hPa SSE 44.7 km/h 44.7 km/h 53 % 0 mm 835.0 W/m2 CLR
13:21 -5.8 °C -11.4 °C 34178.3 hPa SE 35.7 km/h 35.7 km/h 53 % 0 mm 944.0 W/m2 CLR
13:26 -5.7 °C -11.4 °C 34178.3 hPa SE 29.8 km/h 29.8 km/h 52 % 0 mm 944.0 W/m2 CLR
13:31 -5.5 °C -11.6 °C 34164.7 hPa East 44.7 km/h 44.7 km/h 50 % 0 mm 705.0 W/m2 CLR
13:36 -5.4 °C -11.8 °C 34164.7 hPa ESE 41.7 km/h 41.7 km/h 48 % 0 mm 1035.0 W/m2 CLR
13:41 -5.1 °C -11.7 °C 34164.7 hPa SE 53.6 km/h 53.6 km/h 47 % 0 mm 1021.0 W/m2 CLR
13:46 -5.4 °C -12.6 °C 34178.3 hPa SE 56.6 km/h 56.6 km/h 44 % 0 mm 967.0 W/m2 CLR
13:51 -5.6 °C -12.3 °C 34178.3 hPa SE 44.7 km/h 44.7 km/h 46 % 0 mm 921.0 W/m2 CLR
13:56 -5.7 °C -12.4 °C 34164.7 hPa SE 62.6 km/h 62.6 km/h 46 % 0 mm 911.0 W/m2 CLR
14:01 -5.6 °C -12.4 °C 34178.3 hPa SE 71.5 km/h 71.5 km/h 46 % 0 mm 904.0 W/m2 CLR
14:06 -5.7 °C -12.3 °C 34178.3 hPa SE 41.7 km/h 41.7 km/h 47 % 0 mm 909.0 W/m2 CLR
14:11 -5.8 °C -12.3 °C 34164.7 hPa SE 38.8 km/h 38.8 km/h 47 % 0 mm 898.0 W/m2 CLR
14:16 -5.5 °C -12.3 °C 34178.3 hPa SE 50.7 km/h 50.7 km/h 46 % 0 mm 884.0 W/m2 CLR
14:21 -5.6 °C -12.9 °C 34178.3 hPa ESE 59.5 km/h 59.5 km/h 43 % 0 mm 882.0 W/m2 CLR
14:26 -5.5 °C -12.7 °C 34164.7 hPa SE 50.7 km/h 50.7 km/h 44 % 0 mm 877.0 W/m2 CLR
14:31 -5.4 °C -12.7 °C 34178.3 hPa SE 50.7 km/h 50.7 km/h 43 % 0 mm 877.0 W/m2 CLR
14:36 -5.6 °C -12.7 °C 34178.3 hPa SE 59.5 km/h 59.5 km/h 44 % 0 mm 881.0 W/m2 CLR
14:41 -5.7 °C -12.7 °C 34178.3 hPa SE 50.7 km/h 50.7 km/h 44 % 0 mm 870.0 W/m2 CLR
14:46 -5.7 °C -12.8 °C 34178.3 hPa SE 59.5 km/h 59.5 km/h 44 % 0 mm 875.0 W/m2 CLR
14:51 -5.6 °C -12.9 °C 34178.3 hPa East 53.6 km/h 53.6 km/h 43 % 0 mm 877.0 W/m2 CLR
14:56 -5.5 °C -13 °C 34164.7 hPa ESE 68.6 km/h 68.6 km/h 42 % 0 mm 867.0 W/m2 CLR
15:01 -5.7 °C -12.9 °C 34164.7 hPa SE 59.5 km/h 59.5 km/h 43 % 0 mm 858.0 W/m2 CLR
15:06 -5.7 °C -12.8 °C 34164.7 hPa ESE 62.6 km/h 62.6 km/h 44 % 0 mm 853.0 W/m2 CLR
15:11 -5.7 °C -12.6 °C 34164.7 hPa SE 50.7 km/h 50.7 km/h 45 % 0 mm 835.0 W/m2 CLR
15:16 -5.5 °C -12.8 °C 34154.6 hPa SE 68.6 km/h 68.6 km/h 43 % 0 mm 838.0 W/m2 CLR
15:21 -5.6 °C -12.7 °C 34154.6 hPa ESE 56.6 km/h 56.6 km/h 44 % 0 mm 830.0 W/m2 CLR
15:26 -5.5 °C -12.6 °C 34144.4 hPa SSE 50.7 km/h 50.7 km/h 44 % 0 mm 823.0 W/m2 CLR
15:31 -5.7 °C -12.6 °C 34144.4 hPa ESE 59.5 km/h 59.5 km/h 45 % 0 mm 816.0 W/m2 CLR
15:36 -5.7 °C -12.4 °C 34144.4 hPa ESE 59.5 km/h 59.5 km/h 46 % 0 mm 803.0 W/m2 CLR
15:41 -5.6 °C -12.4 °C 34130.9 hPa SE 65.5 km/h 65.5 km/h 46 % 0 mm 795.0 W/m2 CLR
15:42 -5.6 °C -12.4 °C 34130.9 hPa SE 65.5 km/h 65.5 km/h 46 % 0 mm 795.0 W/m2 CLR
15:47 -5.7 °C -12.4 °C 34130.9 hPa ESE 69.8 km/h 69.8 km/h 46 % 0 mm 791.0 W/m2 CLR
15:52 -5.7 °C -12.4 °C 34130.9 hPa ESE 68.6 km/h 68.6 km/h 46 % 0 mm 782.0 W/m2 CLR
15:57 -5.7 °C -12.4 °C 34130.9 hPa SSE 54.4 km/h 54.4 km/h 46 % 0 mm 775.0 W/m2 CLR
16:02 -5.7 °C -12.6 °C 34130.9 hPa ESE 68.6 km/h 68.6 km/h 45 % 0 mm 765.0 W/m2 CLR
16:07 -5.7 °C -12.8 °C 34130.9 hPa SE 68.6 km/h 68.6 km/h 44 % 0 mm 758.0 W/m2 CLR
16:12 -5.8 °C -12.9 °C 34144.4 hPa SE 71.5 km/h 71.5 km/h 44 % 0 mm 749.0 W/m2 CLR
16:17 -5.9 °C -13.1 °C 34144.4 hPa SE 68.6 km/h 68.6 km/h 44 % 0 mm 737.0 W/m2 CLR
16:22 -5.9 °C -12.9 °C 34144.4 hPa SSE 53.6 km/h 53.6 km/h 44 % 0 mm 726.0 W/m2 CLR
16:27 -5.9 °C -13 °C 34144.4 hPa ESE 53.6 km/h 53.6 km/h 44 % 0 mm 717.0 W/m2 CLR
16:32 -5.9 °C -12.8 °C 34144.4 hPa ESE 56.6 km/h 56.6 km/h 45 % 0 mm 710.0 W/m2 CLR
16:37 -5.8 °C -12.7 °C 34144.4 hPa SE 33.6 km/h 37.3 km/h 45 % 0 mm 700.0 W/m2 CLR
16:42 -5.7 °C -12.7 °C 34154.6 hPa ESE 50.7 km/h 50.7 km/h 45 % 0 mm 687.0 W/m2 CLR
16:47 -5.7 °C -12.6 °C 34144.4 hPa SE 47.6 km/h 47.6 km/h 45 % 0 mm 679.0 W/m2 CLR
16:52 -5.7 °C -12.8 °C 34130.9 hPa SE 50.7 km/h 50.7 km/h 44 % 0 mm 668.0 W/m2 CLR
16:57 -5.9 °C -13.1 °C 34130.9 hPa ESE 68.6 km/h 68.6 km/h 44 % 0 mm 659.0 W/m2 CLR
17:02 -5.9 °C -12.9 °C 34130.9 hPa SE 65.5 km/h 65.5 km/h 44 % 0 mm 652.0 W/m2 CLR
17:07 -5.9 °C -13.2 °C 34130.9 hPa SE 65.5 km/h 65.5 km/h 43 % 0 mm 650.0 W/m2 CLR
17:12 -6.1 °C -13.1 °C 34130.9 hPa SE 62.1 km/h 62.1 km/h 44 % 0 mm 598.0 W/m2 CLR
17:17 -6 °C -13.1 °C 34130.9 hPa ESE 47.6 km/h 47.6 km/h 44 % 0 mm 642.0 W/m2 CLR
17:22 -5.9 °C -13.2 °C 34130.9 hPa SE 59.5 km/h 59.5 km/h 43 % 0 mm 638.0 W/m2 CLR
17:27 -5.8 °C -13.1 °C 34130.9 hPa ESE 41.7 km/h 41.7 km/h 43 % 0 mm 564.0 W/m2 CLR
17:32 -5.9 °C -13 °C 34130.9 hPa SE 50.7 km/h 50.7 km/h 44 % 0 mm 290.0 W/m2 CLR
17:37 -5.9 °C -13 °C 34130.9 hPa ESE 29.8 km/h 29.8 km/h 44 % 0 mm 642.0 W/m2 CLR
17:42 -5.7 °C -12.9 °C 34130.9 hPa SSE 53.6 km/h 53.6 km/h 43 % 0 mm 568.0 W/m2 CLR
17:47 -5.8 °C -12.9 °C 34130.9 hPa SE 35.7 km/h 35.7 km/h 44 % 0 mm 563.0 W/m2 CLR
17:52 -5.7 °C -12.7 °C 34120.7 hPa SE 50.7 km/h 50.7 km/h 45 % 0 mm 471.0 W/m2 CLR
17:57 -5.7 °C -12.8 °C 34120.7 hPa SE 44.7 km/h 44.7 km/h 44 % 0 mm 418.0 W/m2 CLR
18:02 -5.8 °C -12.7 °C 34120.7 hPa SE 47.6 km/h 47.6 km/h 45 % 0 mm 301.0 W/m2 CLR
18:07 -5.8 °C -12.7 °C 34120.7 hPa SSE 32.8 km/h 32.8 km/h 45 % 0 mm 223.0 W/m2 CLR
18:12 -5.8 °C -12.5 °C 34120.7 hPa SSE 32.8 km/h 32.8 km/h 46 % 0 mm 265.0 W/m2 CLR
18:17 -5.7 °C -12.4 °C 34107.2 hPa SE 38.8 km/h 38.8 km/h 46 % 0 mm 439.0 W/m2 CLR
18:22 -5.6 °C -12.2 °C 34107.2 hPa SE 28.5 km/h 28.5 km/h 47 % 0 mm 485.0 W/m2 CLR
18:27 -5.6 °C -12.1 °C 34107.2 hPa ESE 38.8 km/h 38.8 km/h 47 % 0 mm 466.0 W/m2 CLR
18:32 -5.6 °C -12 °C 34107.2 hPa SE 38.8 km/h 38.8 km/h 48 % 0 mm 330.0 W/m2 CLR
18:38 -5.7 °C -11.8 °C 34107.2 hPa SE 29.8 km/h 29.8 km/h 50 % 0 mm 348.0 W/m2 CLR
18:43 -5.8 °C -11.5 °C 34107.2 hPa SE 38.8 km/h 38.8 km/h 52 % 0 mm 329.0 W/m2 CLR
18:47 -5.9 °C -11.5 °C 34107.2 hPa ESE 32.8 km/h 32.8 km/h 53 % 0 mm 367.0 W/m2 CLR
18:53 -5.9 °C -11.3 °C 34107.2 hPa ESE 25.9 km/h 25.9 km/h 54 % 0 mm 406.0 W/m2 CLR
18:58 -6 °C -11.3 °C 34107.2 hPa SE 33.6 km/h 33.6 km/h 54 % 0 mm 343.0 W/m2 CLR
19:03 -6.1 °C -11.1 °C 34107.2 hPa ESE 38.8 km/h 38.8 km/h 56 % 0 mm 352.0 W/m2 CLR
19:08 -6.2 °C -11.1 °C 34107.2 hPa SE 38.8 km/h 38.8 km/h 57 % 0 mm 287.0 W/m2 CLR
19:13 -6.4 °C -10.9 °C 34097 hPa East 23.8 km/h 23.8 km/h 60 % 0 mm 302.0 W/m2 CLR
19:18 -6.6 °C -10.7 °C 34097 hPa ESE 29.8 km/h 29.8 km/h 62 % 0 mm 272.0 W/m2 CLR
19:23 -6.8 °C -10.7 °C 34097 hPa ESE 38.8 km/h 38.8 km/h 64 % 0 mm 236.0 W/m2 CLR
19:28 -6.8 °C -10.7 °C 34097 hPa SE 31.1 km/h 34.1 km/h 64 % 0 mm 211.0 W/m2 CLR
19:33 -6.9 °C -10.7 °C 34097 hPa ESE 26.9 km/h 26.9 km/h 65 % 0 mm 190.0 W/m2 CLR
19:38 -6.9 °C -10.7 °C 34097 hPa SSE 26.9 km/h 26.9 km/h 65 % 0 mm 167.0 W/m2 CLR
19:43 -7 °C -10.8 °C 34097 hPa SE 29.8 km/h 29.8 km/h 65 % 0 mm 151.0 W/m2 CLR
19:48 -7.1 °C -10.8 °C 34097 hPa SE 35.7 km/h 35.7 km/h 65 % 0 mm 134.0 W/m2 CLR
19:53 -7.2 °C -10.8 °C 34097 hPa SE 29.8 km/h 29.8 km/h 66 % 0 mm 116.0 W/m2 CLR
19:58 -7.2 °C -10.7 °C 34097 hPa SE 17.9 km/h 17.9 km/h 67 % 0 mm 98.0 W/m2 CLR
20:03 -7.3 °C -10.8 °C 34107.2 hPa ESE 26.9 km/h 26.9 km/h 67 % 0 mm 60.0 W/m2 SCT
20:08 -7.4 °C -10.8 °C 34097 hPa SE 26.9 km/h 26.9 km/h 68 % 0 mm 30.0 W/m2 BKN
20:13 -7.6 °C -10.7 °C 34097 hPa SE 25.9 km/h 25.9 km/h 69 % 0 mm 25.0 W/m2 BKN
20:18 -7.6 °C -10.8 °C 34097 hPa East 9 km/h 9 km/h 69 % 0 mm 23.0 W/m2 BKN
20:23 -7.6 °C -10.8 °C 34107.2 hPa ESE 10.3 km/h 10.3 km/h 69 % 0 mm 18.0 W/m2 BKN
20:28 -7.7 °C -10.8 °C 34107.2 hPa ESE 20.9 km/h 20.9 km/h 70 % 0 mm 21.0 W/m2 BKN
20:33 -7.8 °C -10.9 °C 34107.2 hPa SE 12.9 km/h 12.9 km/h 70 % 0 mm 14.0 W/m2 BKN
20:38 -7.9 °C -10.9 °C 34107.2 hPa ESE 20.9 km/h 20.9 km/h 70 % 0 mm 14.0 W/m2 BKN
20:43 -7.9 °C -11 °C 34107.2 hPa SE 11.9 km/h 11.9 km/h 70 % 0 mm 12.0 W/m2 BKN
20:48 -7.9 °C -10.9 °C 34107.2 hPa Calm     71 % 0 mm 9.0 W/m2 BKN
20:53 -8 °C -10.9 °C 34107.2 hPa Calm     71 % 0 mm 7.0 W/m2 BKN
20:58 -8.1 °C -11 °C 34107.2 hPa Calm     71 % 0 mm 0.0 W/m2 OVC
21:03 -8.1 °C -11.1 °C 34107.2 hPa Calm     71 % 0 mm 0.0 W/m2 OVC
21:08 -8.2 °C -11 °C 34107.2 hPa Calm     72 % 0 mm 0.0 W/m2 OVC
21:13 -8.2 °C -11.1 °C 34107.2 hPa Calm     72 % 0 mm 0.0 W/m2 CLR
21:18 -8.3 °C -11.1 °C 34107.2 hPa Calm     72 % 0 mm 0.0 W/m2 CLR
21:23 -8.3 °C -11.2 °C 34107.2 hPa East 5.1 km/h 5.1 km/h 72 % 0 mm 0.0 W/m2 CLR
21:28 -8.4 °C -11.2 °C 34107.2 hPa Calm     73 % 0 mm 0.0 W/m2 CLR
21:33 -8.5 °C -11.2 °C 34107.2 hPa Calm     73 % 0 mm 0.0 W/m2 CLR
21:38 -8.5 °C -11.1 °C 34107.2 hPa Calm     74 % 0 mm 0.0 W/m2 CLR
21:43 -8.6 °C -11.2 °C 34107.2 hPa Calm     74 % 0 mm 0.0 W/m2 CLR
21:44 -8.6 °C -11.2 °C 34107.2 hPa Calm     74 % 0 mm 0.0 W/m2 CLR
21:49 -8.6 °C -11.2 °C 34120.7 hPa Calm     74 % 0 mm 0.0 W/m2 CLR
21:54 -8.7 °C -11.2 °C 34120.7 hPa ESE 15 km/h 15 km/h 74 % 0 mm 0.0 W/m2 CLR
21:59 -8.7 °C -11.2 °C 34130.9 hPa SE 15 km/h 15 km/h 74 % 0 mm 0.0 W/m2 CLR
22:04 -8.7 °C -11.1 °C 34130.9 hPa SSE 17.9 km/h 17.9 km/h 75 % 0 mm 0.0 W/m2 CLR
22:09 -8.7 °C -11.2 °C 34130.9 hPa SE 11.9 km/h 11.9 km/h 75 % 0 mm 0.0 W/m2 CLR
22:14 -8.7 °C -11.2 °C 34130.9 hPa Calm     75 % 0 mm 0.0 W/m2 CLR
22:19 -8.7 °C -11.2 °C 34130.9 hPa Calm     75 % 0 mm 0.0 W/m2 CLR
22:24 -8.7 °C -11.2 °C 34130.9 hPa Calm     75 % 0 mm 0.0 W/m2 CLR
22:29 -8.7 °C -11.2 °C 34130.9 hPa Calm     75 % 0 mm 0.0 W/m2 CLR
22:34 -8.7 °C -11.3 °C 34130.9 hPa SSE 15 km/h 15 km/h 74 % 0 mm 0.0 W/m2 CLR
22:39 -8.7 °C -11.2 °C 34130.9 hPa SE 12.9 km/h 12.9 km/h 74 % 0 mm 0.0 W/m2 CLR
22:44 -8.7 °C -11.2 °C 34130.9 hPa Calm     74 % 0 mm 0.0 W/m2 CLR
22:49 -8.7 °C -11.2 °C 34130.9 hPa Calm     74 % 0 mm 0.0 W/m2 CLR
22:54 -8.7 °C -11.2 °C 34130.9 hPa Calm     74 % 0 mm 0.0 W/m2 CLR
22:59 -8.7 °C -11.3 °C 34130.9 hPa Calm     74 % 0 mm 0.0 W/m2 CLR
23:04 -8.7 °C -11.2 °C 34144.4 hPa Calm     75 % 0 mm 0.0 W/m2 CLR
23:09 -8.7 °C -11.3 °C 34144.4 hPa Calm     74 % 0 mm 0.0 W/m2 CLR
23:14 -8.7 °C -11.3 °C 34144.4 hPa Calm     74 % 0 mm 0.0 W/m2 CLR
23:19 -8.8 °C -11.3 °C 34144.4 hPa Calm     74 % 0 mm 0.0 W/m2 CLR
23:24 -8.8 °C -11.3 °C 34144.4 hPa Calm     75 % 0 mm 0.0 W/m2 CLR
23:29 -9.1 °C -11.4 °C 34154.6 hPa NW 20.9 km/h 20.9 km/h 76 % 0 mm 0.0 W/m2 CLR
23:34 -9.2 °C -11.4 °C 34154.6 hPa Calm     77 % 0 mm 0.0 W/m2 CLR
23:39 -9.2 °C -11.4 °C 34154.6 hPa Calm     77 % 0 mm 0.0 W/m2 CLR
23:44 -9.2 °C -11.4 °C 34154.6 hPa Calm     77 % 0 mm 0.0 W/m2 CLR
23:49 -9.3 °C -11.5 °C 34144.4 hPa Calm     77 % 0 mm 0.0 W/m2 CLR
23:54 -9.3 °C -11.4 °C 34154.6 hPa Calm     78 % 0 mm 0.0 W/m2 CLR
23:59 -9.4 °C -11.5 °C 34154.6 hPa Calm     78 % 0 mm 0.0 W/m2 CLR
Lo Temps de Massalio
Compliments of Weather Underground - 1.25 mb